User: anonymous   Login
Location: De Greiden
(52.9496°N, 5.9137°E)
Time: 11:45:25
(UTC+00:00)
Language:

CZ-2C R/B - Orbit

View from above orbital plane
View from above orbital plane
View from above satellite
View from above satellite

Ground track
Ground track

The orbit data is extracted from the following two-line orbital elements,

1 31114U 07010B   21102.84103038  .00000019  00000-0  26965-4 0  9993
2 31114  98.2365 301.1548 0060833 113.7442 247.0133 14.19356128725496
Epoch (UTC): 12 April 2021 20:11:05
Eccentricity: 0.0060833
inclination: 98.2365°
perigee height: 784 km
apogee height: 871 km
right ascension of ascending node: 301.1548°
argument of perigee: 113.7442°
revolutions per day: 14.19356128
mean anomaly at epoch: 247.0133°
orbit number at epoch: 72549

The dashed part of the orbit path shows where the satellite is in the earth's shadow,  

DLR